Regional Weather Roundup
Issued by NWS

Home | Current Version | Previous Version | Text Only | Print | Product List | Glossary Off
Versions: 1 2 3 4 5 6 7 8 9 10 11 12 13 14 15 16 17 18 19 20 21 22 23 24 25 26 27 28 29 30 31 32 33 34 35 36 37 38 39 40 41 42 43 44 45 46 47 48 49 50

000
ASUS43 KMPX 050310
RWRMN
WEATHER ROUNDUP FOR MINNESOTA
NATIONAL WEATHER SERVICE TWIN CITIES/CHANHASSEN MN
1000 PM CDT FRI SEP 04 2015


NOTE: "FAIR" INDICATES FEW OR NO CLOUDS BELOW 12,000 FEET WITH NO
SIGNIFICANT WEATHER AND/OR OBSTRUCTIONS TO VISIBILITY. N/A MEANS
CURRENT SKY AND/OR WEATHER CONDITIONS ARE NOT AVAILABLE.

MNZ060>063-068>070-050400-
   Twin Cities Metro

CITY           SKY/WX    TMP DP  RH WIND       PRES   REMARKS
TWIN CITIES    MOCLDY    81  73  76 SE10      29.93R
ST PAUL        PTCLDY    80  73  79 S8        29.93R
CRYSTAL        PTCLDY    83  73  72 S12       29.91R
BLAINE         PTCLDY    82  73  74 SE9       29.92S
LAKEVILLE      MOCLDY    77  72  83 S5        29.95R
EDEN PRAIRIE   CLOUDY    80  68  66 S10       29.92R
SOUTH ST PAUL  PTCLDY    80  72  75 S6        29.94R
LAKE ELMO      FAIR      79  72  78 SE6       29.96R
$$
MNZ001>005-007-008-013>017-022>024-027-028-050400-
   Northwest Minnesota

CITY           SKY/WX    TMP DP  RH WIND       PRES   REMARKS
BEMIDJI        TSTM      70  69  94 SE9       29.91R
HALLOCK        CLEAR     66  64  94 CALM      29.85R
ROSEAU         MOCLDY    70  64  83 S5        29.86R
WARROAD        MOCLDY    68  64  88 CALM      29.87R
THIEF RVR FALL MOCLDY    70  70 100 N3        29.86R
CROOKSTON      PTCLDY    72  70  94 NE3       29.85R
FOSSTON        LGT RAIN  73  70  88 SE6       29.87R
DETROIT LAKES  CLOUDY    77  72  83 SE8       29.88F
MOORHEAD       PTCLDY    75  72  88 E5        29.83S
PARK RAPIDS    CLOUDY    73  70  90 NE6       29.91R
MAHNOMEN       MOCLDY    75  73  92 SE6       29.85S
$$
MNZ006-009>011-018-025>026-050400-
   North Central Minnesota

CITY           SKY/WX    TMP DP  RH WIND       PRES   REMARKS
BAUDETTE       CLOUDY    73  70  90 SE5       29.87R
FLAG ISLAND    MOCLDY    70  66  88 S9        29.84S FOG
INTL FALLS     LGT RAIN  74  70  87 SE7       29.91R
WASKISH        CLOUDY    73  72  94 SE5       29.89R
BIG FORK       CLOUDY    72  66  83 NE3       29.94S THUNDER
LONGVILLE      CLOUDY    75  73  94 SE5       29.91R
GRAND RAPIDS     N/A     72  64  78 SE5       29.94R
CRANE LAKE     CLOUDY    70  64  83 SE1       29.97S
ORR            CLOUDY    72  63  73 SE7       29.93S
COOK           CLOUDY    72  63  73 SE5       29.96F
WALKER         MOCLDY    70  67  89 SE7       29.92R
$$
MNZ012-019>021-037-050400-
   Northeast Minnesota

CITY           SKY/WX    TMP DP  RH WIND       PRES   REMARKS
DULUTH         PTCLDY    64  60  87 E7        29.99R
ELY            CLEAR     68  57  68 SE6       29.99R
HIBBING        MOCLDY    70  63  78 SE8       29.96S
EVELETH        PTCLDY    66  61  82 CALM      29.99S
DULUTH HARBOR  CLOUDY    61  57  88 E5        29.99R
TWO HARBORS    PTCLDY    68  63  83 NE5       29.97S
SILVER BAY     CLOUDY    70  59  68 CALM      29.99R
GRAND MARAIS     N/A     68  54  60 NE7       30.01R
G MARAIS ARPRT CLEAR     63  52  67 E6        30.06S
$$
MNZ029>031-032-039>041-046>048-054>057-064-050400-
   West Central Minnesota

CITY           SKY/WX    TMP DP  RH WIND       PRES   REMARKS
FERGUS FALLS   CLEAR     75  66  73 SE9       29.84R
WHEATON        CLEAR     70  66  88 SE9       29.84F
MORRIS         CLEAR     72  70  94 SE7       29.86S
ALEXANDRIA     CLOUDY    75  68  78 SE7       29.90S
ELBOW LAKE     FAIR      73  68  84 SE8       29.85S
WADENA         CLOUDY    75  70  83 S5        29.89S
GLENWOOD       PTCLDY    73  70  88 SE8       29.90S
APPLETON       PTCLDY    75  68  78 SE6       29.85S
BENSON         PTCLDY    73  66  78 S6        29.87R
ORTONVILLE     CLEAR     72  66  83 SE6       29.84S
MADISON        CLEAR     73  70  88 S7        29.85S
WILLMAR        FAIR      75  70  83 S9        29.90R
$$
MNZ033>034-036-042>043-049>051-058-059-050400-
   Central Minnesota

CITY           SKY/WX    TMP DP  RH WIND       PRES   REMARKS
ST CLOUD       MOCLDY    77  74  90 SE6       29.91R
SAUK CENTRE    CLOUDY    75  71  88 SE5       29.91R
PAYNESVILLE    CLOUDY    76  68  77 E7        29.90F
AITKIN         HVY RAIN  79  72  78 S10       29.92R
PINE RIVER     CLOUDY    73  72  94 SE3       29.94R
BRAINERD       CLOUDY    74  70  87 S6        29.91R
STAPLES        CLOUDY    75  72  88 S5        29.90S
LONG PRAIRIE   CLOUDY    73  72  94 SE6       29.92R
LITTLE FALLS   CLOUDY    77  72  83 SE5       29.91R
LITCHFIELD     CLOUDY    79  70  73 SE8       29.91S
BUFFALO        MOCLDY    78  70  74 S8G16     29.94R
MAPLE LAKE     MOCLDY    79  72  79 S7        29.93R
$$
MNZ037-044-045-052-053-050400-
   East Central Minnesota

CITY           SKY/WX    TMP DP  RH WIND       PRES   REMARKS
PRINCETON      MOCLDY    79  73  83 E5        29.92R
MORA           PTCLDY    75  70  83 SE5       29.94R
CAMBRIDGE      PTCLDY    81  70  69 SE7       29.91S
RUSH CITY      CLEAR     76  71  85 SE7       29.94R
MOOSE LAKE     CLEAR     63  59  88 CALM      29.95R
HINCKLEY       MOCLDY    77  73  88 E6        29.94S
CLOQUET        PTCLDY    63  57  82 E5        29.98S
MCGREGOR       PTCLDY    70  66  88 E6        29.94S
$$
MNZ071>073-080-081-089-090-097-098-050400-
   Southwest Minnesota

CITY           SKY/WX    TMP DP  RH WIND       PRES   REMARKS
MONTEVIDEO     CLEAR     73  70  88 S9        29.88S
GRANITE FALLS  PTCLDY    77  72  83 SE13      29.89S
CANBY          CLEAR     75  70  84 SE8       29.87S
MARSHALL       CLEAR     75  68  78 S12       29.90S
REDWOOD FALLS  PTCLDY    75  70  84 S14       29.89S
OLIVIA         MOCLDY    72  66  83 SE8       29.90R
PIPESTONE      CLOUDY    75  72  88 S9G18     29.90S
WINDOM         PTCLDY    75  72  88 SE8       29.93S
WORTHINGTON    CLEAR     73  70  88 SE9       29.92S
JACKSON        MOCLDY    77  72  83 SE10      29.95S
TRACY          CLEAR     75  72  92 S9        29.90S
SLAYTON        CLEAR     73  73  97 CALM      29.93S
$$
MNZ065>067-074>077-082>085-091>093-050400-
   South Central Minnesota

CITY           SKY/WX    TMP DP  RH WIND       PRES   REMARKS
MANKATO        CLOUDY    75  72  88 SE7       29.94S
NEW ULM        CLOUDY    75  72  88 SE8       29.92S
ST JAMES       CLOUDY    75  73  94 SE8       29.93S
FAIRMONT       CLOUDY    77  68  73 SE9       29.94S
GLENCOE        CLOUDY    75  69  81 SE3       29.92S
FARIBAULT      DRIZZLE   77  73  88 CALM      29.97R
OWATONNA       LGT RAIN  75  70  83 S6        29.98R
WASECA         LGT RAIN  73  72  94 E6        29.98S
ALBERT LEA     CLOUDY    77  73  88 S3        29.98R
$$
MNZ078>079-086>088-094>096-050400-
   Southeast Minnesota

CITY           SKY/WX    TMP DP  RH WIND       PRES   REMARKS
ROCHESTER      MOCLDY    75  72  90 S6        30.00R
RED WING       PTCLDY    81  72  74 SE7       29.94S
STANTON        LGT RAIN  78  73  83 S3        29.95R
DODGE CENTER   RAIN      75  72  88 SW6       30.00R
WINONA         CLEAR     77  70  78 SE3       29.98R
AUSTIN         CLOUDY    79  73  83 CALM      29.99R
PRESTON        MOCLDY    76  70  81 S3        30.01S
$$
ABBREVIATIONS USED IN REMARKS
   TC - TEMPERATURES IN CELSIUS
  WCI - WIND CHILL INDEX
   HX - HEAT INDEX
  VSB - VISIBILITY
$$



USA.gov is the U.S. government's official web portal to all federal, state and local government web resources and services.